Time,TemperatureF,DewpointF,PressureIn,WindDirection,WindDirectionDegrees,WindSpeedMPH,WindSpeedGustMPH,Humidity,HourlyPrecipIn,Conditions,Clouds,dailyrainin,SoftwareType,DateUTC
2013-03-03 00:04:00,9.2,-0.3,30.35,North,0,0.0,0.0,65,0.00,,,0.00,WUHU216HW,2013-03-03 06:04:00,
2013-03-03 00:29:00,7.0,-2.7,30.35,North,0,0.0,0.0,64,0.00,,,0.00,WUHU216HW,2013-03-03 06:29:00,
2013-03-03 00:34:00,7.0,-2.7,30.35,North,0,0.0,0.0,64,0.00,,,0.00,WUHU216HW,2013-03-03 06:34:00,
2013-03-03 00:59:00,4.9,-3.9,30.35,North,0,0.0,0.0,67,0.00,,,0.00,WUHU216HW,2013-03-03 06:59:00,
2013-03-03 01:04:00,4.9,-3.9,30.35,North,0,0.0,0.0,67,0.00,,,0.00,WUHU216HW,2013-03-03 07:04:00,
2013-03-03 01:29:00,4.0,-4.7,30.34,North,0,0.0,0.0,67,0.00,,,0.00,WUHU216HW,2013-03-03 07:29:00,
2013-03-03 01:34:00,4.0,-4.7,30.34,North,0,0.0,0.0,67,0.00,,,0.00,WUHU216HW,2013-03-03 07:34:00,
2013-03-03 01:59:00,2.9,-5.7,30.34,North,0,0.0,0.0,67,0.00,,,0.00,WUHU216HW,2013-03-03 07:59:00,
2013-03-03 02:04:00,2.9,-5.7,30.34,North,0,0.0,0.0,67,0.00,,,0.00,WUHU216HW,2013-03-03 08:04:00,
2013-03-03 02:30:00,0.9,-7.6,30.33,North,0,0.0,0.0,67,0.00,,,0.00,WUHU216HW,2013-03-03 08:30:00,
2013-03-03 02:35:00,0.9,-7.6,30.33,North,0,0.0,0.0,67,0.00,,,0.00,WUHU216HW,2013-03-03 08:35:00,
2013-03-03 02:59:00,0.2,-8.3,30.33,North,0,0.0,0.0,67,0.00,,,0.00,WUHU216HW,2013-03-03 08:59:00,
2013-03-03 03:04:00,0.2,-8.3,30.33,North,0,0.0,0.0,67,0.00,,,0.00,WUHU216HW,2013-03-03 09:04:00,
2013-03-03 03:30:00,-1.3,-9.6,30.33,North,0,0.0,0.0,67,0.00,,,0.00,WUHU216HW,2013-03-03 09:30:00,
2013-03-03 03:35:00,-1.3,-9.6,30.33,North,0,0.0,0.0,67,0.00,,,0.00,WUHU216HW,2013-03-03 09:35:00,
2013-03-03 03:59:00,-2.3,-10.3,30.34,North,0,0.0,0.0,68,0.00,,,0.00,WUHU216HW,2013-03-03 09:59:00,
2013-03-03 04:04:00,-2.3,-10.3,30.34,North,0,0.0,0.0,68,0.00,,,0.00,WUHU216HW,2013-03-03 10:04:00,
2013-03-03 04:29:00,-3.2,-11.2,30.34,North,0,0.0,0.0,68,0.00,,,0.00,WUHU216HW,2013-03-03 10:29:00,
2013-03-03 04:35:00,-3.2,-11.2,30.34,North,0,0.0,0.0,68,0.00,,,0.00,WUHU216HW,2013-03-03 10:35:00,
2013-03-03 04:59:00,-4.0,-12.2,30.34,North,0,0.0,0.0,67,0.00,,,0.00,WUHU216HW,2013-03-03 10:59:00,
2013-03-03 05:04:00,-4.0,-12.2,30.34,North,0,0.0,0.0,67,0.00,,,0.00,WUHU216HW,2013-03-03 11:04:00,
2013-03-03 05:29:00,-4.7,-12.9,30.33,North,0,0.0,0.0,67,0.00,,,0.00,WUHU216HW,2013-03-03 11:29:00,
2013-03-03 05:34:00,-4.7,-12.9,30.33,North,0,0.0,0.0,67,0.00,,,0.00,WUHU216HW,2013-03-03 11:34:00,
2013-03-03 05:59:00,-5.8,-14.0,30.34,North,0,0.0,0.0,67,0.00,,,0.00,WUHU216HW,2013-03-03 11:59:00,
2013-03-03 06:04:00,-5.8,-14.0,30.34,North,0,0.0,0.0,67,0.00,,,0.00,WUHU216HW,2013-03-03 12:04:00,
2013-03-03 06:09:00,-5.8,-14.0,30.34,North,0,0.0,0.0,67,0.00,,,0.00,WUHU216HW,2013-03-03 12:09:00,
2013-03-03 06:30:00,-6.7,-14.8,30.35,North,0,0.0,0.0,67,0.00,,,0.00,WUHU216HW,2013-03-03 12:30:00,
2013-03-03 06:35:00,-6.7,-14.8,30.35,North,0,0.0,0.0,67,0.00,,,0.00,WUHU216HW,2013-03-03 12:35:00,
2013-03-03 06:59:00,-2.9,-10.6,30.35,North,0,0.0,0.0,69,0.00,,,0.00,WUHU216HW,2013-03-03 12:59:00,
2013-03-03 07:04:00,-2.7,-10.4,30.35,North,0,0.0,0.0,69,0.00,,,0.00,WUHU216HW,2013-03-03 13:04:00,
2013-03-03 07:09:00,-2.7,-10.4,30.35,North,0,0.0,0.0,69,0.00,,,0.00,WUHU216HW,2013-03-03 13:09:00,
2013-03-03 07:30:00,-0.9,-10.0,30.36,North,0,0.0,0.0,65,0.00,,,0.00,WUHU216HW,2013-03-03 13:30:00,
2013-03-03 07:35:00,-0.9,-10.0,30.36,North,0,0.0,0.0,65,0.00,,,0.00,WUHU216HW,2013-03-03 13:35:00,
2013-03-03 07:59:00,-2.2,-10.8,30.35,North,0,0.0,0.0,66,0.00,,,0.00,WUHU216HW,2013-03-03 13:59:00,
2013-03-03 08:04:00,-2.2,-10.8,30.35,North,0,0.0,0.0,66,0.00,,,0.00,WUHU216HW,2013-03-03 14:04:00,
2013-03-03 08:09:00,-2.2,-10.8,30.35,North,0,0.0,0.0,66,0.00,,,0.00,WUHU216HW,2013-03-03 14:09:00,
2013-03-03 08:30:00,1.6,-6.9,30.35,NNE,23,0.0,0.0,67,0.00,,,0.00,WUHU216HW,2013-03-03 14:30:00,
2013-03-03 08:35:00,1.6,-6.9,30.35,NNE,23,0.0,0.0,67,0.00,,,0.00,WUHU216HW,2013-03-03 14:35:00,
2013-03-03 08:59:00,7.9,-0.4,30.35,NNE,23,0.0,0.0,68,0.00,,,0.00,WUHU216HW,2013-03-03 14:59:00,
2013-03-03 09:04:00,8.1,-0.3,30.35,NNE,23,0.0,0.0,68,0.00,,,0.00,WUHU216HW,2013-03-03 15:04:00,
2013-03-03 09:09:00,8.1,-0.3,30.35,NNE,23,0.0,0.0,68,0.00,,,0.00,WUHU216HW,2013-03-03 15:09:00,
2013-03-03 09:30:00,14.6,5.6,30.34,ENE,68,1.8,1.8,67,0.00,,,0.00,WUHU216HW,2013-03-03 15:30:00,
2013-03-03 09:35:00,14.6,5.6,30.34,ENE,68,1.8,1.8,67,0.00,,,0.00,WUHU216HW,2013-03-03 15:35:00,
2013-03-03 09:59:00,20.3,9.0,30.33,NE,45,3.8,3.8,61,0.00,,,0.00,WUHU216HW,2013-03-03 15:59:00,
2013-03-03 10:04:00,20.3,9.0,30.33,NE,45,3.8,3.8,61,0.00,,,0.00,WUHU216HW,2013-03-03 16:04:00,
2013-03-03 10:29:00,22.9,9.0,30.32,NE,45,2.7,2.7,55,0.00,,,0.00,WUHU216HW,2013-03-03 16:29:00,
2013-03-03 10:35:00,22.9,9.0,30.32,NE,45,2.7,2.7,55,0.00,,,0.00,WUHU216HW,2013-03-03 16:35:00,
2013-03-03 10:59:00,24.5,8.5,30.32,ENE,68,2.7,2.7,50,0.00,,,0.00,WUHU216HW,2013-03-03 16:59:00,
2013-03-03 11:04:00,24.5,8.5,30.32,ENE,68,2.7,2.7,50,0.00,,,0.00,WUHU216HW,2013-03-03 17:04:00,
2013-03-03 11:29:00,28.1,10.4,30.31,ESE,113,4.0,4.0,47,0.00,,,0.00,WUHU216HW,2013-03-03 17:29:00,
2013-03-03 11:35:00,28.1,10.4,30.31,ESE,113,4.0,4.0,47,0.00,,,0.00,WUHU216HW,2013-03-03 17:35:00,
2013-03-03 11:59:00,30.6,12.2,30.31,SE,135,1.8,1.8,46,0.00,,,0.00,WUHU216HW,2013-03-03 17:59:00,
2013-03-03 12:04:00,30.6,12.2,30.31,SE,135,1.8,1.8,46,0.00,,,0.00,WUHU216HW,2013-03-03 18:04:00,
2013-03-03 12:29:00,32.0,14.0,30.29,SSE,158,2.0,2.0,47,0.00,,,0.00,WUHU216HW,2013-03-03 18:29:00,
2013-03-03 12:34:00,32.0,14.0,30.29,SSE,158,2.0,2.0,47,0.00,,,0.00,WUHU216HW,2013-03-03 18:34:00,
2013-03-03 12:59:00,32.0,10.4,30.28,East,90,1.6,1.6,40,0.00,,,0.00,WUHU216HW,2013-03-03 18:59:00,
2013-03-03 13:04:00,32.0,10.4,30.28,East,90,1.6,1.6,40,0.00,,,0.00,WUHU216HW,2013-03-03 19:04:00,
2013-03-03 13:30:00,32.0,11.0,30.27,SE,135,3.8,3.8,41,0.00,,,0.00,WUHU216HW,2013-03-03 19:30:00,
2013-03-03 13:35:00,32.0,11.0,30.27,SE,135,3.8,3.8,41,0.00,,,0.00,WUHU216HW,2013-03-03 19:35:00,
2013-03-03 13:59:00,34.4,13.1,30.27,East,90,1.1,1.1,41,0.00,,,0.00,WUHU216HW,2013-03-03 19:59:00,
2013-03-03 14:04:00,34.4,13.1,30.27,East,90,1.1,1.1,41,0.00,,,0.00,WUHU216HW,2013-03-03 20:04:00,
2013-03-03 14:30:00,32.8,10.4,30.26,East,90,1.1,1.1,39,0.00,,,0.00,WUHU216HW,2013-03-03 20:30:00,
2013-03-03 14:35:00,32.8,10.4,30.26,East,90,1.1,1.1,39,0.00,,,0.00,WUHU216HW,2013-03-03 20:35:00,
2013-03-03 14:59:00,32.0,9.2,30.26,East,90,1.3,1.3,38,0.00,,,0.00,WUHU216HW,2013-03-03 20:59:00,
2013-03-03 15:04:00,32.0,9.2,30.26,East,90,0.9,1.3,38,0.00,,,0.00,WUHU216HW,2013-03-03 21:04:00,
2013-03-03 15:09:00,32.0,9.2,30.26,East,90,0.9,0.9,38,0.00,,,0.00,WUHU216HW,2013-03-03 21:09:00,
2013-03-03 15:30:00,33.5,11.7,30.26,North,0,0.4,0.4,40,0.00,,,0.00,WUHU216HW,2013-03-03 21:30:00,
2013-03-03 15:35:00,33.5,11.7,30.26,North,0,0.4,0.4,40,0.00,,,0.00,WUHU216HW,2013-03-03 21:35:00,
2013-03-03 15:59:00,32.4,10.8,30.26,North,0,0.7,0.7,40,0.00,,,0.00,WUHU216HW,2013-03-03 21:59:00,
2013-03-03 16:04:00,32.4,10.8,30.26,North,0,0.7,0.7,40,0.00,,,0.00,WUHU216HW,2013-03-03 22:04:00,
2013-03-03 16:09:00,32.4,10.8,30.26,North,0,0.7,0.7,40,0.00,,,0.00,WUHU216HW,2013-03-03 22:09:00,
2013-03-03 16:29:00,31.5,10.4,30.25,North,0,0.0,0.0,41,0.00,,,0.00,WUHU216HW,2013-03-03 22:29:00,
2013-03-03 16:35:00,31.5,10.4,30.25,North,0,0.0,0.0,41,0.00,,,0.00,WUHU216HW,2013-03-03 22:35:00,
2013-03-03 16:59:00,30.4,10.0,30.26,ENE,68,0.2,0.2,42,0.00,,,0.00,WUHU216HW,2013-03-03 22:59:00,
2013-03-03 17:04:00,30.4,10.0,30.26,ENE,68,0.0,0.2,42,0.00,,,0.00,WUHU216HW,2013-03-03 23:04:00,
2013-03-03 17:09:00,30.4,10.0,30.26,ENE,68,0.0,0.0,42,0.00,,,0.00,WUHU216HW,2013-03-03 23:09:00,
2013-03-03 17:29:00,29.0,8.7,30.25,NNE,23,0.2,0.2,42,0.00,,,0.00,WUHU216HW,2013-03-03 23:29:00,
2013-03-03 17:34:00,29.0,8.7,30.25,NNE,23,0.2,0.2,42,0.00,,,0.00,WUHU216HW,2013-03-03 23:34:00,
2013-03-03 17:59:00,27.5,7.8,30.26,NNE,23,0.0,0.0,43,0.00,,,0.00,WUHU216HW,2013-03-03 23:59:00,
2013-03-03 18:04:00,27.5,7.8,30.26,NNE,23,0.0,0.0,43,0.00,,,0.00,WUHU216HW,2013-03-04 00:04:00,
2013-03-03 18:09:00,27.5,7.8,30.26,NNE,23,0.0,0.0,43,0.00,,,0.00,WUHU216HW,2013-03-04 00:09:00,
2013-03-03 18:29:00,24.8,6.4,30.27,NNE,23,0.0,0.0,45,0.00,,,0.00,WUHU216HW,2013-03-04 00:29:00,
2013-03-03 18:34:00,24.8,6.4,30.27,NNE,23,0.0,0.0,45,0.00,,,0.00,WUHU216HW,2013-03-04 00:34:00,
2013-03-03 18:59:00,23.0,5.8,30.27,NNE,23,0.0,0.0,47,0.00,,,0.00,WUHU216HW,2013-03-04 00:59:00,
2013-03-03 19:04:00,23.0,5.8,30.27,NNE,23,0.0,0.0,47,0.00,,,0.00,WUHU216HW,2013-03-04 01:04:00,
2013-03-03 19:29:00,21.2,5.0,30.27,North,0,0.0,0.0,49,0.00,,,0.00,WUHU216HW,2013-03-04 01:29:00,
2013-03-03 19:34:00,21.2,5.0,30.27,North,0,0.0,0.0,49,0.00,,,0.00,WUHU216HW,2013-03-04 01:34:00,
2013-03-03 19:59:00,19.6,4.8,30.27,North,0,0.0,0.0,52,0.00,,,0.00,WUHU216HW,2013-03-04 01:59:00,
2013-03-03 20:04:00,19.6,4.8,30.27,North,0,0.0,0.0,52,0.00,,,0.00,WUHU216HW,2013-03-04 02:04:00,
2013-03-03 20:29:00,18.2,3.9,30.28,North,0,0.0,0.0,53,0.00,,,0.00,WUHU216HW,2013-03-04 02:29:00,
2013-03-03 20:34:00,18.2,3.9,30.28,North,0,0.0,0.0,53,0.00,,,0.00,WUHU216HW,2013-03-04 02:34:00,
2013-03-03 20:59:00,16.4,2.5,30.28,North,0,0.0,0.0,54,0.00,,,0.00,WUHU216HW,2013-03-04 02:59:00,
2013-03-03 21:04:00,16.4,2.5,30.28,North,0,0.0,0.0,54,0.00,,,0.00,WUHU216HW,2013-03-04 03:04:00,
2013-03-03 21:29:00,17.3,4.6,30.28,ENE,68,0.2,0.2,57,0.00,,,0.00,WUHU216HW,2013-03-04 03:29:00,
2013-03-03 21:34:00,17.3,4.6,30.28,ENE,68,0.2,0.2,57,0.00,,,0.00,WUHU216HW,2013-03-04 03:34:00,
2013-03-03 21:59:00,18.0,4.9,30.28,NE,45,0.0,0.0,56,0.00,,,0.00,WUHU216HW,2013-03-04 03:59:00,
2013-03-03 22:04:00,18.0,4.9,30.28,NE,45,0.0,0.0,56,0.00,,,0.00,WUHU216HW,2013-03-04 04:04:00,
2013-03-03 22:29:00,16.4,3.7,30.28,NE,45,0.0,0.0,57,0.00,,,0.00,WUHU216HW,2013-03-04 04:29:00,
2013-03-03 22:34:00,16.4,3.7,30.28,NE,45,0.0,0.0,57,0.00,,,0.00,WUHU216HW,2013-03-04 04:34:00,
2013-03-03 22:39:00,16.4,3.7,30.28,NE,45,0.0,0.0,57,0.00,,,0.00,WUHU216HW,2013-03-04 04:39:00,
2013-03-03 22:59:00,16.4,4.1,30.28,NE,45,0.0,0.0,58,0.00,,,0.00,WUHU216HW,2013-03-04 04:59:00,
2013-03-03 23:00:00,16.4,4.1,30.28,NE,45,0.0,0.0,58,0.00,,,0.00,WUHU216HW,2013-03-04 05:00:00,
2013-03-03 23:05:00,16.4,4.1,30.28,NE,45,0.0,0.0,58,0.00,,,0.00,WUHU216HW,2013-03-04 05:05:00,
2013-03-03 23:29:00,16.2,4.0,30.28,NE,45,0.0,0.0,58,0.00,,,0.00,WUHU216HW,2013-03-04 05:29:00,
2013-03-03 23:34:00,16.2,4.0,30.28,NE,45,0.0,0.0,58,0.00,,,0.00,WUHU216HW,2013-03-04 05:34:00,
2013-03-03 23:59:00,14.8,2.2,30.29,NE,45,0.0,0.0,57,0.00,,,0.00,WUHU216HW,2013-03-04 05:59:00,